EW6103 Weather Reports


Display with metric or nautical units.
time (UTC)temp
F
wind
direction
speed
MPH
gust
MPH
rain 1hr
in
rain 24hr
in
rain mn
in
humidity
%
barometer
mb
20190120050008 24 0 1.0 2.0 0.00 0.00 0.00 90 1017.3
20190120045007 24 0 0.0 2.0 0.00 0.00 0.00 90 1017.3
20190120044007 24 45 0.0 2.0 0.00 0.00 0.00 89 1017.2
20190120040009 23 0 0.0 2.0 0.00 0.00 0.00 90 1017.4
20190120033008 22 0 2.0 4.0 0.00 0.00 0.00 89 1017.7
20190120032007 22 0 1.0 3.0 0.00 0.00 0.00 89 1017.6
20190120030009 23 45 2.0 4.0 0.00 0.00 0.00 89 1017.7
20190120025007 22 45 2.0 4.0 0.00 0.00 0.00 89 1017.7
20190120024008 22 45 1.0 4.0 0.00 0.00 0.00 89 1017.8
20190120022007 22 0 2.0 4.0 0.00 0.00 0.00 89 1018.0
20190120020007 23 45 2.0 4.0 0.00 0.00 0.00 88 1018.0
20190120015007 24 45 1.0 4.0 0.00 0.00 0.00 88 1018.0
20190120014009 24 90 2.0 3.0 0.00 0.00 0.00 87 1018.2
20190120012007 24 45 2.0 4.0 0.00 0.00 0.00 88 1018.3
20190120011008 23 45 1.0 3.0 0.00 0.00 0.00 89 1018.4
20190120010009 23 90 1.0 2.0 0.00 0.00 0.00 90 1018.5
20190120005007 22 45 0.0 1.0 0.00 0.00 0.00 91 1018.6
20190120002009 22 45 1.0 3.0 0.00 0.00 0.00 91 1018.6
20190120000009 20 45 0.0 2.0 0.00 0.00 0.00 93 1019.0
20190119235008 20 45 0.0 1.0 0.00 0.00 0.00 93 1019.1
20190119234008 20 45 0.0 1.0 0.00 0.00 0.00 93 1019.2
20190119233008 20 45 0.0 1.0 0.00 0.00 0.00 93 1019.3
20190119232007 20 45 0.0 1.0 0.00 0.00 0.00 92 1019.3
20190119225009 20 45 1.0 2.0 0.00 0.00 0.00 91 1019.5
20190119223009 21 45 1.0 2.0 0.00 0.00 0.00 89 1019.4
20190119214008 23 90 1.0 3.0 0.00 0.00 0.00 86 1019.5
20190119213009 23 45 2.0 3.0 0.00 0.00 0.00 86 1019.5
20190119212007 23 45 1.0 3.0 0.00 0.00 0.00 86 1019.5
20190119211008 23 45 0.0 2.0 0.00 0.00 0.00 85 1019.5
20190119210007 24 45 1.0 2.0 0.00 0.00 0.00 85 1019.5
20190119204007 24 45 2.0 3.0 0.00 0.00 0.00 84 1019.6
20190119202008 24 45 2.0 3.0 0.00 0.00 0.00 85 1019.5
20190119201008 24 45 1.0 3.0 0.00 0.00 0.00 84 1019.5
20190119194009 25 45 2.0 4.0 0.00 0.00 0.00 82 1019.4
20190119193007 25 135 2.0 3.0 0.00 0.00 0.00 81 1019.5
20190119192007 26 135 2.0 4.0 0.00 0.00 0.00 80 1019.4
20190119190009 26 90 2.0 4.0 0.00 0.00 0.00 79 1019.2
20190119185008 26 90 2.0 3.0 0.00 0.00 0.00 78 1019.3
20190119184008 26 45 3.0 4.0 0.00 0.00 0.00 77 1019.3
20190119183008 26 90 2.0 4.0 0.00 0.00 0.00 76 1019.3
20190119182009 26 90 2.0 4.0 0.00 0.00 0.00 75 1019.4
20190119181009 26 90 2.0 4.0 0.00 0.00 0.00 75 1019.5
20190119171008 27 90 2.0 4.0 0.00 0.00 0.00 74 1019.4
20190119164009 27 135 2.0 3.0 0.00 0.00 0.00 75 1019.6
20190119163007 27 90 1.0 2.0 0.00 0.00 0.00 76 1019.7
20190119155007 29 45 2.0 4.0 0.00 0.00 0.00 71 1019.7
20190119154007 29 45 2.0 4.0 0.00 0.00 0.00 69 1019.6
20190119153009 30 90 2.0 4.0 0.00 0.00 0.00 69 1019.5
20190119152009 31 45 1.0 3.0 0.00 0.00 0.00 68 1019.5
20190119151008 31 90 2.0 4.0 0.00 0.00 0.00 67 1019.8
20190119150009 32 180 0.0 1.0 0.00 0.00 0.00 72 1019.7
20190119134007 36 45 1.0 3.0 0.00 0.00 0.00 64 1019.8
20190119131008 35 270 1.0 3.0 0.00 0.00 0.00 71 1020.2
20190119125009 33 225 2.0 4.0 0.00 0.00 0.00 72 1020.5
20190119123009 33 225 2.0 4.0 0.00 0.00 0.00 77 1020.6
20190119121009 33 270 2.0 4.0 0.00 0.00 0.00 76 1020.6
20190119120008 32 225 2.0 4.0 0.00 0.00 0.00 75 1020.8
20190119114006 32 225 1.0 4.0 0.00 0.00 0.00 76 1021.1
20190119113009 32 225 1.0 3.0 0.00 0.00 0.00 77 1021.2
20190119112008 31 180 1.0 4.0 0.00 0.00 0.00 77 1021.4
20190119110009 32 0 1.0 2.0 0.00 0.00 0.00 77 1021.6
20190119105008 31 180 1.0 3.0 0.00 0.00 0.00 79 1021.8
20190119103007 30 135 1.0 2.0 0.00 0.00 0.00 80 1021.8
20190119100009 30 0 0.0 2.0 0.00 0.01 0.00 84 1022.1
20190119094009 27 180 1.0 2.0 0.00 0.01 0.00 87 1022.6
20190119093007 27 135 0.0 2.0 0.00 0.01 0.00 88 1022.6
20190119090009 24 45 0.0 2.0 0.00 0.01 0.00 92 1022.7
20190119083009 22 0 0.0 2.0 0.00 0.02 0.00 94 1023.0
20190119072007 18 0 0.0 1.0 0.00 0.02 0.00 94 1023.0
20190119070009 18 45 1.0 3.0 0.00 0.02 0.00 94 1022.8
20190119063008 17 45 1.0 2.0 0.00 0.02 0.00 95 1022.8
20190119062008 16 45 1.0 2.0 0.00 0.02 0.00 95 1022.8
20190119061007 16 45 0.0 2.0 0.00 0.02 0.00 95 1022.9
20190119054009 16 45 0.0 2.0 0.00 0.02 0.00 96 1023.0
20190119053007 15 0 0.0 1.0 0.00 0.02 0.00 95 1023.0